Stations météo

réclame
Mon MeteoGroup
Rostock-Warnemünde, Allemagne (10170): Température de l'air & dewpoint: 14.09.2018 18:00:00 - 20.09.2018 18:00:00 (CEST)Rostock-Warnemünde, Allemagne (10170): Température de l'air 5cm & Température de l'air -5cm: 14.09.2018 18:00:00 - 20.09.2018 18:00:00 (CEST)Rostock-Warnemünde, Allemagne (10170): Température de l'air -20cm & Température de l'air -100cm: 14.09.2018 18:00:00 - 20.09.2018 18:00:00 (CEST)Rostock-Warnemünde, Allemagne (10170): Vitesse du vent & gusts: 14.09.2018 18:00:00 - 20.09.2018 18:00:00 (CEST)Rostock-Warnemünde, Allemagne (10170): Direction du vent: 14.09.2018 18:00:00 - 20.09.2018 18:00:00 (CEST)Rostock-Warnemünde, Allemagne (10170): reduced air pressure: 14.09.2018 18:00:00 - 20.09.2018 18:00:00 (CEST)Rostock-Warnemünde, Allemagne (10170): visibility: 14.09.2018 18:00:00 - 20.09.2018 18:00:00 (CEST)Rostock-Warnemünde, Allemagne (10170): Ensoleillement: 14.09.2018 18:00:00 - 20.09.2018 18:00:00 (CEST)Rostock-Warnemünde, Allemagne (10170): Quantités de précipitations: 14.09.2018 18:00:00 - 20.09.2018 18:00:00 (CEST)
Date & Time tt [°C] td [°C] tt 5cm [°C] tt -5cm [°C] tt -20cm [°C] tt -100cm [°C] ff [km/h] ff [knt] fx [km/h] fx [knt] dd ppp [hPa] vv [km] sd [min] rr [mm]
20.09.2018 18:00:00 24,9 11,1 24,5 26,5 21,2 18,3 17 9 36 19 SSW 1013,2 42 55 0,0
20.09.2018 17:00:00 25,2 11,1 26,0 27,0 21,0 18,3 19 10 36 20 SW 1013,4 30 22 0,0
20.09.2018 16:00:00 25,0 11,3 26,3 27,2 20,7 18,3 18 10 40 21 SW 1013,9 34 11 0,0
20.09.2018 15:00:00 24,4 11,5 25,5 27,6 20,4 18,3 19 11 49 26 SW 1014,2 44 11 0,0
20.09.2018 14:00:00 24,3 11,5 25,8 28,0 20,0 18,3 21 12 50 27 SW 1014,5 34 37 0,0
20.09.2018 13:00:00 24,0 12,9 27,5 26,4 19,5 18,3 22 12 44 24 SW 1014,9 25 55 0,0
20.09.2018 12:00:00 23,3 12,8 26,4 24,4 19,2 18,2 21 12 39 21 SW 1015,4 20 60 0,0
20.09.2018 11:00:00 21,5 13,1 25,0 21,5 19,0 18,2 16 8 33 18 SW 1015,9 18 60 0,0
20.09.2018 10:00:00 20,1 12,8 22,7 19,4 18,9 18,2 16 9 28 15 SW 1015,9 20 55 0,0
20.09.2018 09:00:00 18,6 12,5 19,5 17,2 19,0 18,2 12 7 24 13 SSW 1015,8 36 60 0,0
20.09.2018 08:00:00 17,6 12,3 16,8 15,8 19,2 18,2 13 7 21 12 S 1015,7 29 12 0,0
20.09.2018 07:00:00 17,5 12,2 15,9 15,5 19,4 18,2 10 6 18 10 S 1015,4 30 0 0,0
20.09.2018 06:00:00 18,1 12,2 16,2 15,8 19,6 18,2 11 6 21 11 SW 1015,3 26 0 0,0
20.09.2018 05:00:00 18,3 12,1 16,3 16,2 19,8 18,2 12 7 24 13 SSW 1015,3 23 0 0,0
20.09.2018 04:00:00 18,6 12,0 16,7 16,5 20,0 18,2 11 6 22 12 SSW 1015,3 27 0 0,0
20.09.2018 03:00:00 19,6 12,0 17,8 16,9 20,2 18,2 12 7 31 17 SW 1015,3 12 0 0,0
20.09.2018 02:00:00 20,2 12,5 18,5 17,4 20,4 18,1 15 8 33 18 SW 1015,4 26 0 0,0
20.09.2018 01:00:00 19,8 14,0 18,2 18,0 20,6 18,1 11 6 16 9 SSW 1015,3 25 0 0,0
20.09.2018 00:00:00 19,5 15,2 17,7 18,8 20,8 18,1 10 6 27 15 W 1015,4 29 0 0,0
19.09.2018 23:00:00 21,2 12,9 19,5 19,1 21,1 18,1 12 7 20 11 SSW 1015,1 33 0 0,0
19.09.2018 22:00:00 22,2 13,0 20,7 19,8 21,3 18,1 10 5 16 9 S 1014,6 35 0 0,0
19.09.2018 21:00:00 22,3 13,1 20,0 20,2 21,5 18,1 11 6 15 8 S 1014,6 36 0 0,0
19.09.2018 20:00:00 23,3 13,0 20,9 21,8 21,6 18,1 8 4 15 8 S 1014,4 41 0 0,0
19.09.2018 19:00:00 25,1 12,7 23,4 24,5 21,6 18,1 9 5 27 15 S 1014,2 49 56 0,0
19.09.2018 18:00:00 25,9 11,8 25,4 27,4 21,4 18,1 17 9 32 17 S 1014,2 51 60 0,0
19.09.2018 17:00:00 25,7 12,0 26,2 29,4 21,0 18,1 16 8 32 18 S 1015,0 19 60 0,0
19.09.2018 16:00:00 25,4 11,5 26,9 30,5 20,5 18,1 16 9 33 18 SSW 1015,4 17 60 0,0
19.09.2018 15:00:00 23,3 13,0 27,6 30,3 19,9 18,1 3 2 21 11 W 1015,7 20 59 0,0
19.09.2018 14:00:00 24,1 13,0 28,0 28,1 19,4 18,1 16 9 29 16 WSW 1016,6 18 60 0,0
19.09.2018 13:00:00 23,4 13,0 27,1 25,7 18,8 18,1 18 10 31 17 SSW 1016,3 13 60 0,0
19.09.2018 12:00:00 22,0 13,8 25,2 23,1 18,5 18,1 14 8 26 14 SSW 1016,4 16 60 0,0
19.09.2018 11:00:00 20,6 13,9 23,8 20,0 18,3 18,1 13 7 23 12 S 1016,1 15 60 0,0
19.09.2018 10:00:00 18,4 13,9 21,5 17,9 18,2 18,0 14 8 22 12 SW 1016,4 20 60 0,0
19.09.2018 09:00:00 16,9 13,5 18,1 15,7 18,4 18,0 9 5 19 10 SW 1016,4 19 51 0,0
19.09.2018 08:00:00 15,1 13,0 13,8 14,2 18,6 18,0 11 6 20 11 SSW 1016,2 19 20 0,0
19.09.2018 07:00:00 15,0 13,2 13,7 14,2 18,8 18,0 15 8 19 10 SSW 1015,6 16 0 0,0
19.09.2018 06:00:00 15,3 13,5 13,6 14,5 19,0 18,0 12 6 22 12 SSW 1015,3 16 0 0,0
19.09.2018 05:00:00 15,7 13,4 14,4 14,9 19,3 18,0 11 6 16 9 SSW 1015,2 20 0 0,0
19.09.2018 04:00:00 15,8 13,5 14,5 15,3 19,5 18,0 11 6 21 11 SSW 1014,9 20 0 0,0
19.09.2018 03:00:00 16,5 14,0 15,3 15,8 19,8 18,0 11 6 16 8 SSW 1014,2 20 0 0,0
19.09.2018 02:00:00 17,0 15,2 15,9 16,5 20,0 18,0 11 6 19 11 SSW 1014,1 15 0 0,0
19.09.2018 01:00:00 17,2 15,4 15,3 17,0 20,3 18,0 11 6 21 11 W 1013,8 19 0 0,0
19.09.2018 00:00:00 17,6 16,4 16,2 17,7 20,6 18,0 13 7 18 10 W 1013,6 7 0 0,0
18.09.2018 23:00:00 18,1 16,3 16,9 18,8 20,8 18,0 16 9 34 19 WNW 1013,1 9 0 0,0
18.09.2018 22:00:00 19,6 15,7 18,7 20,4 21,0 18,0 28 15 48 26 WNW 1012,2 15 0 0,0
18.09.2018 21:00:00 24,8 7,8 22,9 21,3 21,2 18,0 12 7 25 13 S 1010,7 24 0 0,0
18.09.2018 20:00:00 25,9 7,8 23,8 22,7 21,3 18,0 12 7 22 12 SSE 1010,6 29 9 0,0
18.09.2018 19:00:00 27,9 7,5 25,6 25,3 21,2 18,0 9 5 23 13 SSE 1010,5 33 60 0,0
18.09.2018 18:00:00 29,3 6,7 28,3 28,4 20,9 18,0 14 7 30 16 S 1010,6 46 60 0,0
18.09.2018 17:00:00 29,3 5,9 29,2 30,2 20,5 18,0 16 9 33 18 S 1010,7 18 60 0,0
18.09.2018 16:00:00 29,1 6,1 29,7 31,3 20,0 18,0 20 11 37 20 S 1011,1 19 60 0,0
18.09.2018 15:00:00 28,7 6,8 30,1 31,0 19,3 18,0 20 11 39 21 S 1011,7 10 60 0,0
18.09.2018 14:00:00 28,8 8,9 31,5 28,9 18,6 18,0 14 8 36 19 S 1012,3 16 60 0,0
18.09.2018 13:00:00 27,0 9,1 29,6 26,7 17,9 18,0 19 11 40 21 S 1013,1 13 60 0,0
18.09.2018 12:00:00 25,5 10,5 28,7 24,0 17,4 18,0 13 7 28 15 S 1013,8 21 60 0,0
18.09.2018 11:00:00 22,5 9,9 25,4 20,1 17,1 18,0 10 6 21 12 S 1014,0 39 60 0,0
18.09.2018 10:00:00 20,5 8,9 23,3 18,2 17,0 18,0 9 5 18 10 SSE 1014,5 28 60 0,0
18.09.2018 09:00:00 17,9 8,5 19,7 15,4 17,0 18,0 10 5 21 11 S 1014,6 37 60 0,0
18.09.2018 08:00:00 15,8 8,5 14,1 13,2 17,2 18,0 9 5 17 9 SSE 1014,6 27 24 0,0
18.09.2018 07:00:00 15,2 8,8 13,5 12,8 17,4 18,0 10 5 17 9 SSE 1014,6 36 0 0,0
18.09.2018 06:00:00 15,1 9,1 12,7 12,9 17,6 18,0 8 5 16 9 SSE 1015,0 36 0 0,0
18.09.2018 05:00:00 15,4 9,2 12,9 13,1 17,8 18,0 9 5 17 9 SSE 1015,3 46 0 0,0
18.09.2018 04:00:00 14,9 9,7 12,0 13,1 18,0 18,0 9 5 13 7 S 1015,6 31 0 0,0
18.09.2018 03:00:00 15,2 10,0 11,8 13,8 18,3 17,9 8 4 17 9 SSE 1015,9 39 0 0,0
18.09.2018 02:00:00 16,1 10,4 14,6 14,6 18,5 17,9 10 5 16 8 SSE 1016,2 44 0 0,0
18.09.2018 01:00:00 15,6 11,8 13,7 15,1 18,7 18,0 9 5 15 8 SSE 1016,6 36 0 0,0
18.09.2018 00:00:00 16,6 11,7 15,3 15,6 19,0 18,0 10 5 17 9 SSE 1016,9 36 0 0,0
17.09.2018 23:00:00 17,3 11,0 16,1 16,1 19,2 18,0 14 7 19 11 SE 1017,2 40 0 0,0
17.09.2018 22:00:00 17,3 11,4 15,9 16,5 19,5 18,0 10 5 15 8 SE 1017,5 33 0 0,0
17.09.2018 21:00:00 18,5 11,1 17,4 17,3 19,8 18,0 9 5 12 6 SE 1017,7 37 0 0,0
17.09.2018 20:00:00 19,1 11,3 15,8 18,3 19,9 18,0 4 2 7 4 SSE 1017,3 42 6 0,0
17.09.2018 19:00:00 19,7 11,9 17,4 21,3 20,0 18,0 6 3 10 5 W 1017,1 54 38 0,0
17.09.2018 18:00:00 19,7 13,7 20,1 24,1 19,8 18,0 9 5 15 8 W 1017,4 55 57 0,0
17.09.2018 17:00:00 20,2 14,7 21,7 25,8 19,5 18,0 10 5 16 8 WNW 1017,7 33 60 0,0
17.09.2018 16:00:00 19,8 13,8 22,0 27,4 19,1 18,0 10 5 19 11 WNW 1018,0 29 60 0,0
17.09.2018 15:00:00 21,2 12,4 23,9 27,8 18,6 18,0 15 8 28 15 W 1018,2 28 60 0,0
17.09.2018 14:00:00 23,5 8,8 26,6 26,4 18,0 18,0 16 8 33 18 SW 1018,0 21 60 0,0
17.09.2018 13:00:00 20,9 11,4 25,8 24,7 17,4 18,0 14 8 28 15 W 1018,6 16 60 0,0
17.09.2018 12:00:00 21,4 9,3 25,9 22,2 17,0 18,0 16 9 30 16 WSW 1019,0 13 60 0,0
17.09.2018 11:00:00 20,1 9,9 23,6 19,6 16,7 18,0 9 5 19 10 SSW 1018,8 34 60 0,0
17.09.2018 10:00:00 17,2 9,6 18,1 17,3 16,6 18,0 10 5 22 12 SSW 1018,8 26 34 0,0
17.09.2018 09:00:00 16,0 9,2 16,3 16,1 16,6 18,0 11 6 22 12 S 1018,4 36 0 0,0
17.09.2018 08:00:00 15,0 8,6 14,8 14,5 16,6 18,0 13 7 19 10 S 1018,4 26 4 0,0
17.09.2018 07:00:00 14,0 8,3 13,0 13,2 16,8 18,0 14 8 18 10 S 1018,3 30 0 0,0
17.09.2018 06:00:00 14,2 8,3 13,3 13,0 16,9 18,0 14 8 20 11 S 1018,5 29 0 0,0
17.09.2018 05:00:00 14,6 8,5 13,0 13,3 17,1 18,0 13 7 21 12 S 1018,1 29 0 0,0
17.09.2018 04:00:00 14,6 8,6 13,5 13,6 17,3 18,0 13 7 20 11 S 1018,1 30 0 0,0
17.09.2018 03:00:00 15,0 8,7 13,7 13,7 17,5 18,0 12 6 18 10 S 1018,5 34 0 0,0
17.09.2018 02:00:00 15,8 8,8 14,5 14,8 17,6 18,0 11 6 20 11 S 1018,6 35 0 0,0
17.09.2018 01:00:00 16,0 9,0 15,0 14,8 17,8 18,0 11 6 19 11 S 1019,0 31 0 0,0
17.09.2018 00:00:00 16,0 9,3 14,6 15,1 18,0 18,1 7 4 15 8 S 1019,3 37 0 0,0
16.09.2018 23:00:00 16,3 9,6 15,2 14,9 18,2 18,1 10 5 16 8 S 1019,4 33 0 0,0
16.09.2018 22:00:00 16,7 9,4 14,7 15,3 18,5 18,1 9 5 15 8 S 1019,9 38 0 0,0
16.09.2018 21:00:00 17,1 9,1 12,8 15,5 18,7 18,1 7 4 10 6 S 1020,1 46 0 0,0
16.09.2018 20:00:00 18,1 8,7 15,2 17,2 18,9 18,1 6 3 13 7 S 1020,0 46 0 0,0
16.09.2018 19:00:00 19,4 8,3 17,9 19,5 18,9 18,1 9 5 30 16 SW 1019,8 54 30 0,0
16.09.2018 18:00:00 20,8 8,2 20,4 21,9 18,7 18,1 16 9 31 17 SSW 1019,9 53 25 0,0
16.09.2018 17:00:00 20,3 8,8 20,6 23,3 18,5 18,1 11 6 28 15 S 1020,4 48 26 0,0
16.09.2018 16:00:00 19,9 8,6 21,1 23,9 18,1 18,1 15 8 28 15 SSW 1021,1 35 11 0,0
16.09.2018 15:00:00 19,9 8,9 21,7 25,4 17,5 18,1 14 7 29 15 SSW 1021,8 43 52 0,0
16.09.2018 14:00:00 19,3 9,0 21,9 23,9 17,0 18,1 15 8 31 17 SSW 1022,3 16 60 0,0
16.09.2018 13:00:00 18,4 9,2 22,3 21,9 16,5 18,1 13 7 28 15 SW 1022,8 29 37 0,0
16.09.2018 12:00:00 17,6 9,9 20,4 20,6 16,1 18,2 15 8 29 15 SSW 1023,4 19 25 0,0
16.09.2018 11:00:00 16,6 10,7 19,6 16,9 15,8 18,2 12 6 25 14 SSW 1023,7 33 55 0,0
16.09.2018 10:00:00 15,3 9,2 18,8 15,1 15,7 18,2 9 5 17 9 SSW 1023,9 38 60 0,0
16.09.2018 09:00:00 12,8 8,8 14,5 13,0 15,7 18,2 9 5 18 10 SSW 1024,0 25 60 0,0
16.09.2018 08:00:00 10,5 8,3 9,7 10,8 15,9 18,2 14 8 18 10 SSW 1023,9 28 45 0,0
16.09.2018 07:00:00 10,1 8,4 8,9 10,6 16,2 18,2 16 9 19 10 SSW 1023,6 25 0 0,0
16.09.2018 06:00:00 10,4 8,8 9,5 11,0 16,4 18,2 14 8 19 10 SSW 1023,3 27 0 0,0
16.09.2018 05:00:00 10,9 9,5 9,7 11,5 16,6 18,2 16 8 19 10 SSW 1023,2 26 0 0,0
16.09.2018 04:00:00 11,3 10,0 10,3 11,8 16,8 18,2 14 8 19 10 SSW 1023,2 28 0 0,0
16.09.2018 03:00:00 11,7 10,2 10,7 12,4 17,0 18,2 14 7 22 12 SSW 1023,5 32 0 0,0
16.09.2018 02:00:00 12,5 10,1 11,3 12,7 17,2 18,2 13 7 22 12 SW 1023,4 49 0 0,0
16.09.2018 01:00:00 12,8 10,1 12,0 13,3 17,4 18,2 14 7 28 15 SW 1023,4 52 0 0,0
16.09.2018 00:00:00 13,7 10,8 13,0 14,3 17,6 18,2 12 6 28 15 SW 1022,9 62 0 0,0
15.09.2018 23:00:00 14,2 10,4 13,6 14,8 17,8 18,2 11 6 22 12 SW 1022,5 49 0 0,0
15.09.2018 22:00:00 13,9 10,2 13,5 14,8 17,9 18,2 13 7 20 11 SSW 1022,4 46 0 0,0
15.09.2018 21:00:00 14,9 9,2 14,0 14,8 18,1 18,2 10 5 27 14 SW 1022,1 53 0 0,0
15.09.2018 20:00:00 15,3 9,7 14,3 15,7 18,3 18,2 17 9 44 24 W 1021,7 29 0 0,0
15.09.2018 19:00:00 16,5 10,0 16,2 17,4 18,4 18,2 29 16 45 24 W 1021,4 42 0 0,0
15.09.2018 18:00:00 16,6 11,8 16,4 18,5 18,4 18,2 17 9 38 20 W 1020,8 40 0 0,0
15.09.2018 17:00:00 16,5 11,4 16,8 19,4 18,3 18,2 26 14 37 20 W 1020,7 51 0 0,0
15.09.2018 16:00:00 16,5 10,8 17,4 20,1 18,2 18,2 18 10 37 20 W 1020,1 46 0 0,0
15.09.2018 15:00:00 16,8 10,9 17,9 21,3 18,0 18,2 26 14 42 23 W 1019,9 44 7 0,0
15.09.2018 14:00:00 17,3 10,1 19,6 21,8 17,7 18,2 21 12 36 19 SW 1019,4 27 24 0,0
15.09.2018 13:00:00 16,1 11,4 17,3 20,0 17,5 18,2 18 10 36 20 WSW 1019,2 28 1 0,0
15.09.2018 12:00:00 16,4 11,2 17,7 20,3 17,2 18,2 22 12 44 24 W 1019,1 30 10 0,0
15.09.2018 11:00:00 16,3 10,7 18,1 18,9 17,0 18,2 26 14 42 23 W 1018,6 33 40 0,0
15.09.2018 10:00:00 15,7 10,9 17,7 17,2 16,9 18,2 16 9 33 18 WSW 1018,2 29 36 0,0
15.09.2018 09:00:00 14,8 10,1 15,8 15,8 16,9 18,2 16 8 30 16 WSW 1017,3 33 20 0,0
15.09.2018 08:00:00 13,9 9,4 13,5 14,2 17,0 18,2 13 7 26 14 SW 1017,1 32 0 0,0
15.09.2018 07:00:00 13,6 9,2 13,0 13,4 17,2 18,2 16 9 28 15 SW 1016,7 28 0 0,0
15.09.2018 06:00:00 13,1 9,0 11,5 13,0 17,4 18,2 11 6 23 12 SW 1016,4 20 0 0,0
15.09.2018 05:00:00 14,0 9,0 13,2 14,2 17,5 18,3 13 7 21 12 SW 1016,3 21 0 0,0
15.09.2018 04:00:00 13,5 8,9 13,1 14,4 17,7 18,3 11 6 16 9 SSW 1016,6 21 0 0,0
15.09.2018 03:00:00 14,1 8,9 13,2 14,6 17,9 18,3 9 5 14 8 S 1016,5 24 0 0,0
15.09.2018 02:00:00 14,3 8,6 13,5 14,6 18,1 18,3 8 5 14 8 S 1017,0 26 0 0,0
15.09.2018 01:00:00 14,5 8,7 13,4 14,7 18,3 18,3 9 5 11 6 S 1017,3 25 0 0,0
15.09.2018 00:00:00 15,4 8,4 14,2 15,3 18,6 18,3 8 5 13 7 S 1017,4 32 0 0,0
14.09.2018 23:00:00 15,6 8,7 14,5 15,6 18,8 18,3 10 5 12 6 SSW 1017,7 29 0 0,0
14.09.2018 22:00:00 16,0 9,1 14,6 16,3 19,1 18,3 9 5 11 6 SSW 1018,1 31 0 0,0
14.09.2018 21:00:00 16,9 8,9 15,8 17,1 19,3 18,3 6 4 8 4 S 1018,1 35 0 0,0
14.09.2018 20:00:00 16,6 9,8 13,9 17,6 19,5 18,3 2 1 9 5 WSW 1018,0 41 0 0,0
14.09.2018 19:00:00 17,3 10,4 16,5 19,8 19,6 18,3 7 4 15 8 WNW 1018,1 43 3 0,0
14.09.2018 18:00:00 17,9 9,7 18,2 22,2 19,5 18,3 12 6 24 13 WNW 1018,2 37 22 0,0

tt = Température de l'air
td = dewpoint
tt 5cm = Température de l'air 5cm
tt -5cm = Température de l'air -5cm
tt -20cm = Température de l'air -20cm
tt -100cm = Température de l'air -100cm
ff = Vitesse du vent
fx = gusts
dd = Direction du vent
ppp = reduced air pressure
vv = visibility
sd = Ensoleillement
rr = Quantités de précipitations

stations d'obs. à proximité